,,,PA_Meas_PMT16A,,PR_Meas_QMR101_102,,RH_Meas_QMH101,,SR_Meas_QMS101,,TA_Meas_QMH101,,GenWind,,GenWind,
date,time,status,PA,status,PR,status,RH,status,SR,status,TA,status,DirAvg,status,SpdAvg,
2011-05-19, 00:00:04,VALID,1004.87,VALID,0,INVALID,163.701,VALID,0.100563,VALID,24.6166,VALID,342,VALID,0.63125,
2011-05-19, 00:01:04,VALID,1004.85,VALID,0,INVALID,163.678,VALID,0,VALID,24.6166,VALID,354,VALID,0.682422,
2011-05-19, 00:02:04,VALID,1004.84,VALID,0,INVALID,163.678,VALID,0,VALID,24.6361,VALID,1,VALID,0.846484,
2011-05-19, 00:03:04,VALID,1004.82,VALID,0,INVALID,163.655,VALID,0.100563,VALID,24.6537,VALID,354,VALID,0.596094,
2011-05-19, 00:04:04,VALID,1004.77,VALID,0,INVALID,163.693,VALID,0,VALID,24.7335,VALID,357,VALID,0.682422,
2011-05-19, 00:05:04,VALID,1004.77,VALID,0,INVALID,163.67,VALID,0,VALID,24.7919,VALID,347,VALID,0.566797,
2011-05-19, 00:06:04,VALID,1004.76,VALID,0,INVALID,163.655,VALID,0,VALID,24.9106,VALID,2,VALID,0.710547,
2011-05-19, 00:07:04,VALID,1004.74,VALID,0,INVALID,163.655,VALID,0,VALID,24.9885,VALID,6,VALID,0.739844,
2011-05-19, 00:08:04,VALID,1004.71,VALID,0,INVALID,163.655,VALID,0,VALID,25.006,VALID,10,VALID,0.386328,
2011-05-19, 00:09:04,VALID,1004.74,VALID,0,INVALID,163.662,VALID,0,VALID,25.045,VALID,10,VALID,0.205469,
2011-05-19, 00:10:04,VALID,1004.74,VALID,0,INVALID,163.632,VALID,0,VALID,25.0839,VALID,10,VALID,0.1875,
2011-05-19, 00:11:04,VALID,1004.75,VALID,0,INVALID,163.624,VALID,0,VALID,25.0431,VALID,53,VALID,0.267578,
2011-05-19, 00:12:04,VALID,1004.78,VALID,0,INVALID,163.609,VALID,0,VALID,25.045,VALID,38,VALID,0.547656,
2011-05-19, 00:13:04,VALID,1004.77,VALID,0,INVALID,163.655,VALID,0.100563,VALID,25.0469,VALID,33,VALID,0.305859,
2011-05-19, 00:14:04,VALID,1004.79,VALID,0,INVALID,163.639,VALID,0,VALID,25.006,VALID,33,VALID,0.370703,
2011-05-19, 00:15:04,VALID,1004.8,VALID,0,INVALID,163.655,VALID,0,VALID,24.9866,VALID,33,VALID,0.184375,
2011-05-19, 00:16:04,VALID,1004.8,VALID,0,INVALID,163.67,VALID,0.100563,VALID,24.9671,VALID,36,VALID,0.411328,
2011-05-19, 00:17:04,VALID,1004.81,VALID,0,INVALID,163.67,VALID,0,VALID,24.9282,VALID,37,VALID,0.432422,
2011-05-19, 00:18:04,VALID,1004.78,VALID,0,INVALID,163.685,VALID,0.100563,VALID,24.8892,VALID,37,VALID,0.216406,
2011-05-19, 00:19:04,VALID,1004.78,VALID,0,INVALID,163.662,VALID,0.100563,VALID,24.8484,VALID,37,VALID,0.38125,
2011-05-19, 00:20:04,VALID,1004.74,VALID,0,INVALID,163.678,VALID,0.100563,VALID,24.8095,VALID,37,VALID,0.319141,
2011-05-19, 00:21:04,VALID,1004.73,VALID,0,INVALID,163.639,VALID,0.100563,VALID,24.8308,VALID,37,VALID,0.391016,
2011-05-19, 00:22:04,VALID,1004.73,VALID,0,INVALID,163.67,VALID,0.100563,VALID,24.8095,VALID,53,VALID,0.369531,
2011-05-19, 00:23:04,VALID,1004.72,VALID,0,INVALID,163.693,VALID,0,VALID,24.8522,VALID,53,VALID,0.203125,
2011-05-19, 00:24:04,VALID,1004.7,VALID,0,INVALID,163.678,VALID,0,VALID,24.8113,VALID,53,VALID,0.514453,
2011-05-19, 00:25:04,VALID,1004.68,VALID,0,INVALID,163.678,VALID,0.100563,VALID,24.8308,VALID,61,VALID,0.328125,
2011-05-19, 00:26:04,VALID,1004.65,VALID,0,INVALID,163.708,VALID,0,VALID,24.8113,VALID,61,VALID,0.182422,
2011-05-19, 00:27:04,VALID,1004.63,VALID,0,INVALID,163.67,VALID,0.100563,VALID,24.7919,VALID,61,VALID,0.474219,
2011-05-19, 00:28:04,VALID,1004.61,VALID,0,INVALID,163.662,VALID,0,VALID,24.7919,VALID,61,VALID,0.358203,
2011-05-19, 00:29:04,VALID,1004.57,VALID,0,INVALID,163.67,VALID,0,VALID,24.8113,VALID,61,VALID,0.376563,
2011-05-19, 00:30:04,VALID,1004.57,VALID,0,INVALID,163.716,VALID,0,VALID,24.8327,VALID,61,VALID,0.297656,
2011-05-19, 00:31:04,VALID,1004.56,VALID,0,INVALID,163.678,VALID,0,VALID,24.7919,VALID,61,VALID,0.454688,
2011-05-19, 00:32:04,VALID,1004.56,VALID,0,INVALID,163.701,VALID,0.100563,VALID,24.7724,VALID,61,VALID,0.342187,
2011-05-19, 00:33:04,VALID,1004.55,VALID,0,INVALID,163.693,VALID,0,VALID,24.6926,VALID,67,VALID,0.200391,
2011-05-19, 00:34:04,VALID,1004.53,VALID,0,INVALID,163.67,VALID,0,VALID,24.675,VALID,67,VALID,0.287891,
2011-05-19, 00:35:04,VALID,1004.5,VALID,0,INVALID,163.693,VALID,0,VALID,24.6342,VALID,67,VALID,0.333984,
2011-05-19, 00:36:04,VALID,1004.49,VALID,0,INVALID,163.685,VALID,0.100563,VALID,24.6556,VALID,67,VALID,0.229687,
2011-05-19, 00:37:04,VALID,1004.51,VALID,0,INVALID,163.716,VALID,0.100563,VALID,24.6361,VALID,67,VALID,0.525781,
2011-05-19, 00:38:04,VALID,1004.51,VALID,0,INVALID,163.685,VALID,0,VALID,24.5972,VALID,70,VALID,0.153516,
2011-05-19, 00:39:04,VALID,1004.5,VALID,0,INVALID,163.723,VALID,0.100563,VALID,24.5564,VALID,70,VALID,0.269141,
2011-05-19, 00:40:04,VALID,1004.49,VALID,0,INVALID,163.67,VALID,0,VALID,24.5972,VALID,70,VALID,0.442969,
2011-05-19, 00:41:04,VALID,1004.49,VALID,0,INVALID,163.678,VALID,0,VALID,24.5972,VALID,69,VALID,0.191797,
2011-05-19, 00:42:04,VALID,1004.5,VALID,0,INVALID,163.678,VALID,0,VALID,24.5564,VALID,70,VALID,0.242969,
2011-05-19, 00:43:04,VALID,1004.5,VALID,0,INVALID,163.708,VALID,0,VALID,24.5564,VALID,69,VALID,0.456641,
2011-05-19, 00:44:04,VALID,1004.48,VALID,0,INVALID,163.693,VALID,0,VALID,24.5388,VALID,59,VALID,0.469141,
2011-05-19, 00:45:04,VALID,1004.47,VALID,0,INVALID,163.693,VALID,0.100563,VALID,24.5193,VALID,59,VALID,0.360156,
2011-05-19, 00:46:04,VALID,1004.46,VALID,0,INVALID,163.701,VALID,0,VALID,24.4998,VALID,59,VALID,0.305859,
2011-05-19, 00:47:04,VALID,1004.44,VALID,0,INVALID,163.723,VALID,0,VALID,24.4609,VALID,59,VALID,0.148438,
2011-05-19, 00:48:04,VALID,1004.38,VALID,0,INVALID,163.701,VALID,0,VALID,24.4804,VALID,59,VALID,0,
2011-05-19, 00:49:04,VALID,1004.37,VALID,0,INVALID,163.693,VALID,0.100563,VALID,24.4998,VALID,59,VALID,0,
2011-05-19, 00:50:04,VALID,1004.34,VALID,0,INVALID,163.723,VALID,0,VALID,24.4804,VALID,59,VALID,0.0527344,
2011-05-19, 00:51:04,VALID,1004.33,VALID,0,INVALID,163.708,VALID,0,VALID,24.4804,VALID,59,VALID,0,
2011-05-19, 00:52:04,VALID,1004.31,VALID,0,INVALID,163.723,VALID,0.100563,VALID,24.4396,VALID,59,VALID,0.108984,
2011-05-19, 00:53:04,VALID,1004.3,VALID,0,INVALID,163.678,VALID,0,VALID,24.4609,VALID,59,VALID,0.153125,
2011-05-19, 00:54:04,VALID,1004.3,VALID,0,INVALID,163.685,VALID,0.100563,VALID,24.5017,VALID,59,VALID,0.300391,
2011-05-19, 00:55:04,VALID,1004.28,VALID,0,INVALID,163.685,VALID,0,VALID,24.459,VALID,59,VALID,0.140625,
2011-05-19, 00:56:04,VALID,1004.28,VALID,0,INVALID,163.716,VALID,0,VALID,24.4785,VALID,59,VALID,0.259766,
2011-05-19, 00:57:04,VALID,1004.27,VALID,0,INVALID,163.701,VALID,0,VALID,24.5174,VALID,59,VALID,0.267969,
2011-05-19, 00:58:04,VALID,1004.29,VALID,0,INVALID,163.701,VALID,0,VALID,24.5582,VALID,59,VALID,0.253125,
2011-05-19, 00:59:04,VALID,1004.28,VALID,0,INVALID,163.701,VALID,0,VALID,24.5777,VALID,59,VALID,0.391406,
2011-05-19, 01:00:04,VALID,1004.27,VALID,0,INVALID,163.708,VALID,0,VALID,24.5972,VALID,58,VALID,0.468359,
2011-05-19, 01:01:04,VALID,1004.24,VALID,0,INVALID,163.678,VALID,0,VALID,24.5972,VALID,58,VALID,0.475391,
2011-05-19, 01:02:04,VALID,1004.22,VALID,0,INVALID,163.701,VALID,0.100563,VALID,24.5582,VALID,58,VALID,0.357422,
2011-05-19, 01:03:04,VALID,1004.23,VALID,0,INVALID,163.685,VALID,0.100563,VALID,24.5174,VALID,58,VALID,0.341797,
2011-05-19, 01:04:04,VALID,1004.21,VALID,0,INVALID,163.701,VALID,0,VALID,24.4998,VALID,58,VALID,0.126953,
2011-05-19, 01:05:04,VALID,1004.24,VALID,0,INVALID,163.708,VALID,0,VALID,24.4998,VALID,58,VALID,0,
2011-05-19, 01:06:04,VALID,1004.23,VALID,0,INVALID,163.701,VALID,0,VALID,24.4414,VALID,58,VALID,0,
2011-05-19, 01:07:04,VALID,1004.25,VALID,0,INVALID,163.701,VALID,0.100563,VALID,24.4433,VALID,58,VALID,0,
2011-05-19, 01:08:04,VALID,1004.23,VALID,0,INVALID,163.731,VALID,0,VALID,24.4025,VALID,58,VALID,0.222656,
2011-05-19, 01:09:04,VALID,1004.25,VALID,0,INVALID,163.701,VALID,0,VALID,24.3636,VALID,58,VALID,0.226172,
2011-05-19, 01:10:04,VALID,1004.22,VALID,0,INVALID,163.693,VALID,0.100563,VALID,24.3636,VALID,58,VALID,0.234375,
2011-05-19, 01:11:04,VALID,1004.21,VALID,0,INVALID,163.731,VALID,0,VALID,24.3441,VALID,58,VALID,0.294922,
2011-05-19, 01:12:04,VALID,1004.18,VALID,0,INVALID,163.716,VALID,0,VALID,24.3033,VALID,58,VALID,0.181641,
2011-05-19, 01:13:05,VALID,1004.15,VALID,0,INVALID,163.678,VALID,0,VALID,24.3459,VALID,58,VALID,0.0664063,
2011-05-19, 01:14:05,VALID,1004.14,VALID,0,INVALID,163.723,VALID,0,VALID,24.3246,VALID,58,VALID,0.160547,
2011-05-19, 01:15:05,VALID,1004.13,VALID,0,INVALID,163.716,VALID,0,VALID,24.3441,VALID,58,VALID,0.152344,
2011-05-19, 01:16:05,VALID,1004.1,VALID,0,INVALID,163.731,VALID,0,VALID,24.3422,VALID,58,VALID,0.192969,
2011-05-19, 01:17:05,VALID,1004.06,VALID,0,INVALID,163.708,VALID,0,VALID,24.3422,VALID,58,VALID,0.444141,
2011-05-19, 01:18:05,VALID,1004.05,VALID,0,INVALID,163.739,VALID,0,VALID,24.3654,VALID,58,VALID,0.419531,
2011-05-19, 01:19:05,VALID,1004.06,VALID,0,INVALID,163.708,VALID,0,VALID,24.3441,VALID,58,VALID,0.351563,
2011-05-19, 01:20:05,VALID,1004.05,VALID,0,INVALID,163.693,VALID,0,VALID,24.3052,VALID,58,VALID,0.0726563,
2011-05-19, 01:21:05,VALID,1004.03,VALID,0,INVALID,163.731,VALID,0.100563,VALID,24.2662,VALID,58,VALID,0.471875,
2011-05-19, 01:22:05,VALID,1004.04,VALID,0,INVALID,163.731,VALID,0,VALID,24.2662,VALID,58,VALID,0.285547,
2011-05-19, 01:23:05,VALID,1004.03,VALID,0,INVALID,163.701,VALID,0,VALID,24.2468,VALID,58,VALID,0.435547,
2011-05-19, 01:24:05,VALID,1004.02,VALID,0,INVALID,163.708,VALID,0,VALID,24.2273,VALID,58,VALID,0.137109,
2011-05-19, 01:25:05,VALID,1003.98,VALID,0,INVALID,163.716,VALID,0,VALID,24.2468,VALID,58,VALID,0.25625,
2011-05-19, 01:26:05,VALID,1003.98,VALID,0,INVALID,163.731,VALID,0,VALID,24.1884,VALID,58,VALID,0.4875,
2011-05-19, 01:27:05,VALID,1003.98,VALID,0,INVALID,163.723,VALID,0,VALID,24.2078,VALID,58,VALID,0.436328,
2011-05-19, 01:28:05,VALID,1003.97,VALID,0,INVALID,163.731,VALID,0,VALID,24.2078,VALID,52,VALID,0.58125,
2011-05-19, 01:29:05,VALID,1003.96,VALID,0,INVALID,163.693,VALID,0,VALID,24.1865,VALID,51,VALID,0.340625,
2011-05-19, 01:30:05,VALID,1003.94,VALID,0,INVALID,163.716,VALID,0,VALID,24.2875,VALID,14,VALID,0.512109,
2011-05-19, 01:31:05,VALID,1003.9,VALID,0,INVALID,163.716,VALID,0.100563,VALID,24.3441,VALID,14,VALID,0.340234,
2011-05-19, 01:32:05,VALID,1003.86,VALID,0,INVALID,163.723,VALID,0,VALID,24.3654,VALID,14,VALID,0.246484,
2011-05-19, 01:33:05,VALID,1003.83,VALID,0,INVALID,163.708,VALID,0,VALID,24.3441,VALID,14,VALID,0.284375,
2011-05-19, 01:34:05,VALID,1003.83,VALID,0,INVALID,163.716,VALID,0,VALID,24.3636,VALID,14,VALID,0.497656,
2011-05-19, 01:35:05,VALID,1003.83,VALID,0,INVALID,163.708,VALID,0,VALID,24.383,VALID,14,VALID,0.292578,
2011-05-19, 01:36:05,VALID,1003.81,VALID,0,INVALID,163.701,VALID,0,VALID,24.3617,VALID,14,VALID,0.316797,
2011-05-19, 01:37:05,VALID,1003.77,VALID,0,INVALID,163.708,VALID,0,VALID,24.3636,VALID,14,VALID,0.460938,
2011-05-19, 01:38:05,VALID,1003.77,VALID,0,INVALID,163.723,VALID,0.100563,VALID,24.383,VALID,14,VALID,0.608984,
2011-05-19, 01:39:05,VALID,1003.76,VALID,0,INVALID,163.678,VALID,0,VALID,24.3636,VALID,14,VALID,0.556641,
2011-05-19, 01:40:05,VALID,1003.75,VALID,0,INVALID,163.716,VALID,0,VALID,24.3246,VALID,14,VALID,0.519141,
2011-05-19, 01:41:05,VALID,1003.72,VALID,0,INVALID,163.716,VALID,0,VALID,24.2857,VALID,14,VALID,0.41875,
2011-05-19, 01:42:05,VALID,1003.73,VALID,0,INVALID,163.716,VALID,0,VALID,24.2449,VALID,14,VALID,0.455469,
2011-05-19, 01:43:05,VALID,1003.71,VALID,0,INVALID,163.701,VALID,0,VALID,24.2273,VALID,14,VALID,0.405859,
2011-05-19, 01:44:05,VALID,1003.69,VALID,0,INVALID,163.716,VALID,0,VALID,24.2097,VALID,14,VALID,0.401172,
2011-05-19, 01:45:05,VALID,1003.69,VALID,0,INVALID,163.739,VALID,0,VALID,24.2097,VALID,14,VALID,0.296094,
2011-05-19, 01:46:05,VALID,1003.67,VALID,0,INVALID,163.723,VALID,0,VALID,24.1476,VALID,14,VALID,0.369922,
2011-05-19, 01:47:05,VALID,1003.67,VALID,0,INVALID,163.716,VALID,0,VALID,24.1087,VALID,14,VALID,0.353906,
2011-05-19, 01:48:05,VALID,1003.66,VALID,0,INVALID,163.716,VALID,0,VALID,24.13,VALID,14,VALID,0.300391,
2011-05-19, 01:49:05,VALID,1003.64,VALID,0,INVALID,163.701,VALID,0,VALID,24.1318,VALID,14,VALID,0.207813,
2011-05-19, 01:50:05,VALID,1003.64,VALID,0,INVALID,163.716,VALID,0,VALID,24.1105,VALID,14,VALID,0.084375,
2011-05-19, 01:51:05,VALID,1003.63,VALID,0,INVALID,163.731,VALID,0,VALID,24.1689,VALID,14,VALID,0,
2011-05-19, 01:52:05,VALID,1003.61,VALID,0,INVALID,163.731,VALID,0,VALID,24.2468,VALID,14,VALID,0,
2011-05-19, 01:53:05,VALID,1003.65,VALID,0,INVALID,163.716,VALID,0,VALID,24.2857,VALID,14,VALID,0,
2011-05-19, 01:54:05,VALID,1003.63,VALID,0,INVALID,163.723,VALID,0,VALID,24.3052,VALID,14,VALID,0,
2011-05-19, 01:55:05,VALID,1003.65,VALID,0,INVALID,163.708,VALID,0,VALID,24.3636,VALID,14,VALID,0,
2011-05-19, 01:56:05,VALID,1003.63,VALID,0,INVALID,163.708,VALID,0,VALID,24.383,VALID,14,VALID,0,
2011-05-19, 01:57:05,VALID,1003.6,VALID,0,INVALID,163.716,VALID,0,VALID,24.4025,VALID,14,VALID,0,
2011-05-19, 01:58:05,VALID,1003.57,VALID,0,INVALID,163.678,VALID,0,VALID,24.4025,VALID,14,VALID,0,
2011-05-19, 01:59:05,VALID,1003.56,VALID,0,INVALID,163.716,VALID,0,VALID,24.422,VALID,14,VALID,0,
2011-05-19, 02:00:05,VALID,1003.59,VALID,0,INVALID,163.731,VALID,0,VALID,24.422,VALID,14,VALID,0.326953,
2011-05-19, 02:01:05,VALID,1003.57,VALID,0,INVALID,163.701,VALID,0,VALID,24.422,VALID,54,VALID,0.517187,
2011-05-19, 02:02:05,VALID,1003.6,VALID,0,INVALID,163.701,VALID,0.100563,VALID,24.4414,VALID,55,VALID,0.160156,
2011-05-19, 02:03:05,VALID,1003.59,VALID,0,INVALID,163.693,VALID,0,VALID,24.4433,VALID,56,VALID,0.445313,
2011-05-19, 02:04:05,VALID,1003.57,VALID,0,INVALID,163.693,VALID,0,VALID,24.4025,VALID,56,VALID,0.212891,
2011-05-19, 02:05:05,VALID,1003.57,VALID,0,INVALID,163.731,VALID,0,VALID,24.383,VALID,56,VALID,0.202734,
2011-05-19, 02:06:05,VALID,1003.57,VALID,0,INVALID,163.708,VALID,0,VALID,24.3636,VALID,59,VALID,0.280078,
2011-05-19, 02:07:05,VALID,1003.62,VALID,0,INVALID,163.708,VALID,0,VALID,24.3246,VALID,59,VALID,0.494922,
2011-05-19, 02:08:05,VALID,1003.61,VALID,0,INVALID,163.708,VALID,0,VALID,24.3052,VALID,59,VALID,0.510156,
2011-05-19, 02:09:05,VALID,1003.65,VALID,0,INVALID,163.701,VALID,0,VALID,24.3246,VALID,60,VALID,0.574609,
2011-05-19, 02:10:05,VALID,1003.64,VALID,0,INVALID,163.739,VALID,0,VALID,24.3052,VALID,61,VALID,0.325391,
2011-05-19, 02:11:05,VALID,1003.64,VALID,0,INVALID,163.708,VALID,0,VALID,24.3052,VALID,64,VALID,0.247656,
2011-05-19, 02:12:05,VALID,1003.66,VALID,0,INVALID,163.716,VALID,0,VALID,24.3246,VALID,64,VALID,0.365625,
2011-05-19, 02:13:05,VALID,1003.66,VALID,0,INVALID,163.701,VALID,0,VALID,24.3654,VALID,92,VALID,0.546094,
2011-05-19, 02:14:05,VALID,1003.66,VALID,0,INVALID,163.716,VALID,0,VALID,24.3636,VALID,92,VALID,0.336719,
2011-05-19, 02:15:05,VALID,1003.65,VALID,0,INVALID,163.723,VALID,0,VALID,24.3654,VALID,37,VALID,0.301172,
2011-05-19, 02:16:05,VALID,1003.65,VALID,0,INVALID,163.723,VALID,0.100563,VALID,24.3246,VALID,37,VALID,0.106641,
2011-05-19, 02:17:05,VALID,1003.64,VALID,0,INVALID,163.723,VALID,0,VALID,24.3052,VALID,37,VALID,0,
2011-05-19, 02:18:05,VALID,1003.65,VALID,0,INVALID,163.701,VALID,0,VALID,24.3246,VALID,37,VALID,0,
2011-05-19, 02:19:05,VALID,1003.64,VALID,0,INVALID,163.716,VALID,0.100563,VALID,24.3246,VALID,37,VALID,0.100391,
2011-05-19, 02:20:05,VALID,1003.63,VALID,0,INVALID,163.731,VALID,0,VALID,24.3441,VALID,37,VALID,0.173828,
2011-05-19, 02:21:05,VALID,1003.61,VALID,0,INVALID,163.708,VALID,0.100563,VALID,24.3636,VALID,37,VALID,0.238672,
2011-05-19, 02:22:05,VALID,1003.59,VALID,0,INVALID,163.716,VALID,0,VALID,24.3441,VALID,84,VALID,0.208984,
2011-05-19, 02:23:05,VALID,1003.58,VALID,0,INVALID,163.693,VALID,0,VALID,24.3636,VALID,84,VALID,0,
2011-05-19, 02:24:05,VALID,1003.55,VALID,0,INVALID,163.701,VALID,0,VALID,24.4025,VALID,79,VALID,0.403516,
2011-05-19, 02:25:05,VALID,1003.56,VALID,0,INVALID,163.701,VALID,0,VALID,24.422,VALID,91,VALID,0.392188,
2011-05-19, 02:26:05,VALID,1003.57,VALID,0,INVALID,163.693,VALID,0,VALID,24.4414,VALID,91,VALID,0.244922,
2011-05-19, 02:27:05,VALID,1003.55,VALID,0,INVALID,163.723,VALID,0.100563,VALID,24.4414,VALID,91,VALID,0.260156,
2011-05-19, 02:28:05,VALID,1003.53,VALID,0,INVALID,163.701,VALID,0,VALID,24.4609,VALID,91,VALID,0.244531,
2011-05-19, 02:29:05,VALID,1003.52,VALID,0,INVALID,163.716,VALID,0.100563,VALID,24.5017,VALID,91,VALID,0.216016,
2011-05-19, 02:30:05,VALID,1003.5,VALID,0,INVALID,163.708,VALID,0,VALID,24.4804,VALID,91,VALID,0.248437,
2011-05-19, 02:31:05,VALID,1003.51,VALID,0,INVALID,163.685,VALID,0.100563,VALID,24.4804,VALID,91,VALID,0.167578,
2011-05-19, 02:32:05,VALID,1003.48,VALID,0,INVALID,163.716,VALID,0,VALID,24.459,VALID,91,VALID,0.216406,
2011-05-19, 02:33:05,VALID,1003.44,VALID,0,INVALID,163.685,VALID,0.100563,VALID,24.4609,VALID,91,VALID,0.255469,
2011-05-19, 02:34:05,VALID,1003.43,VALID,0,INVALID,163.701,VALID,0,VALID,24.4609,VALID,91,VALID,0.197656,
2011-05-19, 02:35:05,VALID,1003.39,VALID,0,INVALID,163.708,VALID,0,VALID,24.4414,VALID,91,VALID,0.214453,
2011-05-19, 02:36:05,VALID,1003.38,VALID,0,INVALID,163.693,VALID,0.100563,VALID,24.422,VALID,91,VALID,0.273047,
2011-05-19, 02:37:05,VALID,1003.36,VALID,0,INVALID,163.685,VALID,0,VALID,24.383,VALID,87,VALID,0.295703,
2011-05-19, 02:38:05,VALID,1003.35,VALID,0,INVALID,163.716,VALID,0,VALID,24.3636,VALID,87,VALID,0.359375,
2011-05-19, 02:39:05,VALID,1003.36,VALID,0,INVALID,163.701,VALID,0.100563,VALID,24.3422,VALID,87,VALID,0.373437,
2011-05-19, 02:40:05,VALID,1003.34,VALID,0,INVALID,163.685,VALID,0.100563,VALID,24.3636,VALID,87,VALID,0.294141,
2011-05-19, 02:41:05,VALID,1003.35,VALID,0,INVALID,163.693,VALID,0.100563,VALID,24.3636,VALID,87,VALID,0.178125,
2011-05-19, 02:42:05,VALID,1003.34,VALID,0,INVALID,163.708,VALID,0.100563,VALID,24.3636,VALID,87,VALID,0.448438,
2011-05-19, 02:43:05,VALID,1003.33,VALID,0,INVALID,163.708,VALID,0.100563,VALID,24.3812,VALID,87,VALID,0.436328,
2011-05-19, 02:44:05,VALID,1003.31,VALID,0,INVALID,163.716,VALID,0,VALID,24.383,VALID,87,VALID,0.209375,
2011-05-19, 02:45:05,VALID,1003.33,VALID,0,INVALID,163.693,VALID,0.100563,VALID,24.4006,VALID,87,VALID,0.385547,
2011-05-19, 02:46:05,VALID,1003.31,VALID,0,INVALID,163.678,VALID,0,VALID,24.4609,VALID,87,VALID,0.271875,
2011-05-19, 02:47:05,VALID,1003.31,VALID,0,INVALID,163.701,VALID,0,VALID,24.4804,VALID,87,VALID,0.419141,
2011-05-19, 02:48:05,VALID,1003.32,VALID,0,INVALID,163.701,VALID,0.100563,VALID,24.5388,VALID,86,VALID,0.767578,
2011-05-19, 02:49:05,VALID,1003.3,VALID,0,INVALID,163.678,VALID,0,VALID,24.5758,VALID,85,VALID,0.357031,
2011-05-19, 02:50:05,VALID,1003.26,VALID,0,INVALID,163.685,VALID,0,VALID,24.5972,VALID,76,VALID,0.560938,
2011-05-19, 02:51:05,VALID,1003.25,VALID,0,INVALID,163.701,VALID,0,VALID,24.5953,VALID,47,VALID,0.321094,
2011-05-19, 02:52:05,VALID,1003.24,VALID,0,INVALID,163.708,VALID,0,VALID,24.6361,VALID,60,VALID,0.451953,
2011-05-19, 02:53:05,VALID,1003.23,VALID,0,INVALID,163.678,VALID,0.100563,VALID,24.5564,VALID,54,VALID,0.533984,
2011-05-19, 02:54:05,VALID,1003.22,VALID,0,INVALID,163.701,VALID,0,VALID,24.5193,VALID,45,VALID,0.673047,
2011-05-19, 02:55:05,VALID,1003.23,VALID,0,INVALID,163.693,VALID,0,VALID,24.4998,VALID,39,VALID,0.293359,
2011-05-19, 02:56:05,VALID,1003.23,VALID,0,INVALID,163.685,VALID,0,VALID,24.459,VALID,39,VALID,0.0707031,
2011-05-19, 02:57:05,VALID,1003.25,VALID,0,INVALID,163.708,VALID,0,VALID,24.4414,VALID,39,VALID,0.0253906,
2011-05-19, 02:58:05,VALID,1003.27,VALID,0,INVALID,163.701,VALID,0,VALID,24.4609,VALID,39,VALID,0.221094,
2011-05-19, 02:59:05,VALID,1003.32,VALID,0,INVALID,163.701,VALID,0,VALID,24.4609,VALID,39,VALID,0.096875,
2011-05-19, 03:00:05,VALID,1003.3,VALID,0,INVALID,163.701,VALID,0.100563,VALID,24.4804,VALID,39,VALID,0.280469,
2011-05-19, 03:01:05,VALID,1003.34,VALID,0,INVALID,163.701,VALID,0,VALID,24.4998,VALID,39,VALID,0.269141,
2011-05-19, 03:02:05,VALID,1003.35,VALID,0,INVALID,163.701,VALID,0.100563,VALID,24.4609,VALID,39,VALID,0,
2011-05-19, 03:03:05,VALID,1003.37,VALID,0,INVALID,163.716,VALID,0,VALID,24.4396,VALID,39,VALID,0.319922,
2011-05-19, 03:04:05,VALID,1003.39,VALID,0,INVALID,163.708,VALID,0.100563,VALID,24.422,VALID,39,VALID,0.439063,
2011-05-19, 03:05:05,VALID,1003.36,VALID,0,INVALID,163.708,VALID,0.100563,VALID,24.422,VALID,39,VALID,0.458203,
2011-05-19, 03:06:05,VALID,1003.37,VALID,0,INVALID,163.708,VALID,0.100563,VALID,24.3617,VALID,39,VALID,0.498047,
2011-05-19, 03:07:05,VALID,1003.4,VALID,0,INVALID,163.693,VALID,0.100563,VALID,24.383,VALID,39,VALID,0.480078,
2011-05-19, 03:08:05,VALID,1003.37,VALID,0,INVALID,163.716,VALID,0,VALID,24.3459,VALID,39,VALID,0.451172,
2011-05-19, 03:09:05,VALID,1003.39,VALID,0,INVALID,163.731,VALID,0,VALID,24.2857,VALID,39,VALID,0.448438,
2011-05-19, 03:10:05,VALID,1003.39,VALID,0,INVALID,163.723,VALID,0,VALID,24.2255,VALID,39,VALID,0.584375,
2011-05-19, 03:11:05,VALID,1003.38,VALID,0,INVALID,163.716,VALID,0,VALID,24.2078,VALID,39,VALID,0.739453,
2011-05-19, 03:12:05,VALID,1003.4,VALID,0,INVALID,163.731,VALID,0,VALID,24.1689,VALID,39,VALID,0.596875,
2011-05-19, 03:13:05,VALID,1003.45,VALID,0,INVALID,163.708,VALID,0,VALID,24.1689,VALID,39,VALID,0.617969,
2011-05-19, 03:14:05,VALID,1003.43,VALID,0,INVALID,163.723,VALID,0,VALID,24.1281,VALID,39,VALID,0.641406,
2011-05-19, 03:15:05,VALID,1003.44,VALID,0,INVALID,163.739,VALID,0.100563,VALID,24.1689,VALID,39,VALID,0.547266,
2011-05-19, 03:16:05,VALID,1003.46,VALID,0,INVALID,163.716,VALID,0,VALID,24.1689,VALID,39,VALID,0.408203,
2011-05-19, 03:17:05,VALID,1003.42,VALID,0,INVALID,163.746,VALID,0,VALID,24.1494,VALID,39,VALID,0.191016,
2011-05-19, 03:18:05,VALID,1003.4,VALID,0,INVALID,163.746,VALID,0,VALID,24.13,VALID,39,VALID,0,
2011-05-19, 03:19:05,VALID,1003.4,VALID,0,INVALID,163.723,VALID,0,VALID,24.0892,VALID,39,VALID,0,
2011-05-19, 03:20:05,VALID,1003.4,VALID,0,INVALID,163.739,VALID,0,VALID,24.091,VALID,39,VALID,0,
2011-05-19, 03:21:05,VALID,1003.38,VALID,0,INVALID,163.723,VALID,0,VALID,24.0716,VALID,39,VALID,0.511719,
2011-05-19, 03:22:05,VALID,1003.37,VALID,0,INVALID,163.723,VALID,0,VALID,24.0716,VALID,39,VALID,0.596484,
2011-05-19, 03:23:05,VALID,1003.34,VALID,0,INVALID,163.754,VALID,0,VALID,24.1105,VALID,28,VALID,0.479297,
2011-05-19, 03:24:05,VALID,1003.31,VALID,0,INVALID,163.754,VALID,0,VALID,24.0892,VALID,28,VALID,0.336719,
2011-05-19, 03:25:05,VALID,1003.33,VALID,0,INVALID,163.731,VALID,0,VALID,24.1105,VALID,28,VALID,0.282813,
2011-05-19, 03:26:05,VALID,1003.34,VALID,0,INVALID,163.739,VALID,0.100563,VALID,24.0697,VALID,28,VALID,0.217187,
2011-05-19, 03:27:05,VALID,1003.32,VALID,0,INVALID,163.716,VALID,0,VALID,24.0716,VALID,28,VALID,0.353125,
2011-05-19, 03:28:05,VALID,1003.35,VALID,0,INVALID,163.716,VALID,0,VALID,24.091,VALID,28,VALID,0.354297,
2011-05-19, 03:29:05,VALID,1003.32,VALID,0,INVALID,163.746,VALID,0,VALID,24.1707,VALID,28,VALID,0.496094,
2011-05-19, 03:30:05,VALID,1003.36,VALID,0,INVALID,163.723,VALID,0,VALID,24.1902,VALID,28,VALID,0.333594,
2011-05-19, 03:31:05,VALID,1003.34,VALID,0,INVALID,163.716,VALID,0.100563,VALID,24.1884,VALID,28,VALID,0.252734,
2011-05-19, 03:32:05,VALID,1003.35,VALID,0,INVALID,163.716,VALID,0,VALID,24.1689,VALID,28,VALID,0,
2011-05-19, 03:33:05,VALID,1003.37,VALID,0,INVALID,163.716,VALID,0,VALID,24.1494,VALID,28,VALID,0,
2011-05-19, 03:34:05,VALID,1003.36,VALID,0,INVALID,163.746,VALID,0,VALID,24.1494,VALID,28,VALID,0,
2011-05-19, 03:35:05,VALID,1003.35,VALID,0,INVALID,163.723,VALID,0,VALID,24.1494,VALID,28,VALID,0,
2011-05-19, 03:36:05,VALID,1003.36,VALID,0,INVALID,163.708,VALID,0,VALID,24.1689,VALID,28,VALID,0,
2011-05-19, 03:37:05,VALID,1003.38,VALID,0,INVALID,163.708,VALID,0,VALID,24.1884,VALID,28,VALID,0,
2011-05-19, 03:38:05,VALID,1003.37,VALID,0,INVALID,163.746,VALID,0,VALID,24.2097,VALID,28,VALID,0,
2011-05-19, 03:39:05,VALID,1003.36,VALID,0,INVALID,163.723,VALID,0,VALID,24.206,VALID,56,VALID,0.146484,
2011-05-19, 03:40:05,VALID,1003.37,VALID,0,INVALID,163.716,VALID,0,VALID,24.2468,VALID,56,VALID,0.391406,